Malmstrom AFB, MT

3:09 PM MDT on May 28, 2017 (GMT -0600)
Malmstrom AFB

Weather History for KGFA - November, 2012

Change the Weather History Date:

Tuesday, November 6, 2012

  Actual Average (KGTF) Record (KGTF)
Temperature  
Mean Temperature 48 °F -  
Max Temperature 60 °F 44 °F 72 °F (2010)
Min Temperature 37 °F 26 °F -13 °F (1971)
Degree Days  
Heating Degree Days 16    
Moisture  
Dew Point 34 °F    
Average Humidity 57    
Maximum Humidity 83    
Minimum Humidity 36    
Precipitation  
Precipitation 0.00 in - - ()
Sea Level Pressure  
Sea Level Pressure 30.11 in    
Wind  
Wind Speed 6 mph (South)    
Max Wind Speed 17 mph    
Max Gust Speed -    
Visibility 10 miles    
Events      
Averages and records for this station are not official NWS values.
T = Trace of Precipitation, MM = Missing Value Source: NWS Daily Summary

Daily Weather History Graph

Daily Weather History Graph

Search for Another Location

Airport or City:

Trip Planner

Search our weather history database for the weather conditions in past years. The results will help you decide how hot, cold, wet, or windy it might be!

Date:

Astronomy

Nov. 06, 2012 Rise Set
Actual Time 7:16 AM MST 4:59 PM MST
Civil Twilight 6:44 AM MST 5:31 PM MST
Nautical Twilight 6:07 AM MST 6:08 PM MST
Astronomical Twilight 5:31 AM MST 6:44 PM MST
Moon 11:47 PM MST (11/6) 1:07 PM MST (11/6)
Length of Visible Light 10h 47m
Length of Day
9h 42m
Waning Gibbous, 52% of the Moon is Illuminated
Nov 6
Waning Gibbous
Nov 6
Last Quarter
Nov 13
New
Nov 20
First Quarter
Nov 28
Full

Hourly Weather History & Observations

Time (MST) Temp. Windchill Dew Point Humidity Pressure Visibility Wind Dir Wind Speed Gust Speed Precip Events Conditions
12:56 AM 46.9 °F - 34.0 °F 61% 30.21 in 10.0 mi WSW 5.8 mph - N/A   Clear
1:56 AM 48.0 °F - 34.0 °F 58% 30.21 in 10.0 mi WSW 5.8 mph - N/A   Clear
2:56 AM 46.9 °F - 34.0 °F 61% 30.22 in 10.0 mi West 5.8 mph - N/A   Clear
3:56 AM 39.0 °F - 32.0 °F 76% 30.25 in 10.0 mi Calm Calm - N/A   Scattered Clouds
4:56 AM 37.9 °F 34.4 °F 32.0 °F 79% 30.25 in 10.0 mi SSE 4.6 mph - N/A   Clear
5:56 AM 39.9 °F - 33.1 °F 77% 30.25 in 10.0 mi Calm Calm - N/A   Scattered Clouds
6:56 AM 39.0 °F - 33.1 °F 79% 30.26 in 10.0 mi Calm Calm - N/A   Clear
7:56 AM 37.9 °F 35.5 °F 33.1 °F 83% 30.26 in 10.0 mi SE 3.5 mph - N/A   Clear
8:56 AM 46.0 °F 44.8 °F 37.0 °F 71% 30.23 in 10.0 mi SE 3.5 mph - N/A   Clear
9:56 AM 46.9 °F - 39.0 °F 74% 30.21 in 10.0 mi Calm Calm - N/A   Clear
10:56 AM 50.0 °F - 39.9 °F 68% 30.21 in 10.0 mi Calm Calm - N/A   Clear
11:56 AM 51.1 °F - 39.9 °F 66% 30.19 in 10.0 mi Calm Calm - N/A   Clear
12:56 PM 55.0 °F - 37.9 °F 53% 30.13 in 10.0 mi South 6.9 mph - N/A   Clear
1:56 PM 57.9 °F - 36.0 °F 44% 30.08 in 10.0 mi South 10.4 mph - N/A   Clear
2:56 PM 57.9 °F - 35.1 °F 42% 30.06 in 10.0 mi South 9.2 mph - N/A   Clear
3:56 PM 57.9 °F - 33.1 °F 39% 30.05 in 10.0 mi South 9.2 mph - N/A   Clear
4:56 PM 60.1 °F - 33.1 °F 36% 30.02 in 10.0 mi South 12.7 mph - N/A   Clear
5:56 PM 55.0 °F - 33.1 °F 43% 30.01 in 10.0 mi South 13.8 mph - N/A   Clear
6:56 PM 54.0 °F - 33.1 °F 45% 30.00 in 10.0 mi South 12.7 mph - N/A   Clear
7:56 PM 54.0 °F - 32.0 °F 43% 29.99 in 10.0 mi South 17.3 mph - N/A   Clear
8:56 PM 55.9 °F - 32.0 °F 40% 29.95 in 10.0 mi South 12.7 mph - N/A   Clear
9:56 PM 55.9 °F - 33.1 °F 42% 29.92 in 10.0 mi South 15.0 mph - N/A   Clear
10:56 PM 55.0 °F - 33.1 °F 43% 29.90 in 10.0 mi South 10.4 mph - N/A   Clear
11:56 PM 53.1 °F - 33.1 °F 47% 29.88 in 10.0 mi SSW 11.5 mph - N/A   Clear